,,,PA_Meas_PMT16A,,PR_Meas_QMR101_102,,RH_Meas_QMH101,,SR_Meas_QMS101,,TA_Meas_QMH101,,GenWind,,GenWind,
date,time,status,PA,status,PR,status,RH,status,SR,status,TA,status,DirAvg,status,SpdAvg,
2009-03-30, 00:00:05,VALID,1005.33,VALID,0,VALID,94.2396,VALID,0,VALID,23.6628,VALID,353,VALID,0.327344,
2009-03-30, 00:01:05,VALID,1005.32,VALID,0,VALID,94.2472,VALID,0.100563,VALID,23.6628,VALID,353,VALID,0.194531,
2009-03-30, 00:02:05,VALID,1005.35,VALID,0,VALID,94.2472,VALID,0,VALID,23.6434,VALID,353,VALID,0.307422,
2009-03-30, 00:03:05,VALID,1005.33,VALID,0,VALID,94.2319,VALID,0,VALID,23.6434,VALID,353,VALID,0.289844,
2009-03-30, 00:04:05,VALID,1005.34,VALID,0,VALID,94.2167,VALID,0.100563,VALID,23.6044,VALID,353,VALID,0.342578,
2009-03-30, 00:05:05,VALID,1005.31,VALID,0,VALID,94.1938,VALID,0,VALID,23.585,VALID,353,VALID,0.177734,
2009-03-30, 00:06:05,VALID,1005.33,VALID,0,VALID,94.2014,VALID,0.100563,VALID,23.5868,VALID,353,VALID,0.15625,
2009-03-30, 00:07:05,VALID,1005.34,VALID,0,VALID,94.2014,VALID,0.100563,VALID,23.5868,VALID,353,VALID,0,
2009-03-30, 00:08:05,VALID,1005.3,VALID,0,VALID,94.2243,VALID,0.100563,VALID,23.546,VALID,353,VALID,0,
2009-03-30, 00:09:05,VALID,1005.33,VALID,0,VALID,94.2624,VALID,0.100563,VALID,23.546,VALID,353,VALID,0,
2009-03-30, 00:10:05,VALID,1005.29,VALID,0,VALID,94.2548,VALID,0.100563,VALID,23.5248,VALID,353,VALID,0,
2009-03-30, 00:11:05,VALID,1005.31,VALID,0,VALID,94.2701,VALID,0,VALID,23.5478,VALID,353,VALID,0,
2009-03-30, 00:12:05,VALID,1005.26,VALID,0,VALID,94.293,VALID,0,VALID,23.5478,VALID,353,VALID,0,
2009-03-30, 00:13:05,VALID,1005.27,VALID,0,VALID,94.3387,VALID,0,VALID,23.5673,VALID,353,VALID,0,
2009-03-30, 00:14:05,VALID,1005.24,VALID,0,VALID,94.3464,VALID,0,VALID,23.5478,VALID,353,VALID,0,
2009-03-30, 00:15:05,VALID,1005.21,VALID,0,VALID,94.3692,VALID,0,VALID,23.5673,VALID,353,VALID,0.537109,
2009-03-30, 00:16:05,VALID,1005.18,VALID,0,VALID,94.3311,VALID,0,VALID,23.5478,VALID,353,VALID,0.318359,
2009-03-30, 00:17:05,VALID,1005.18,VALID,0,VALID,94.3235,VALID,0,VALID,23.5089,VALID,353,VALID,0.1375,
2009-03-30, 00:18:05,VALID,1005.18,VALID,0,VALID,94.354,VALID,0,VALID,23.5302,VALID,353,VALID,0,
2009-03-30, 00:19:05,VALID,1005.21,VALID,0,VALID,94.3387,VALID,0,VALID,23.4894,VALID,353,VALID,0,
2009-03-30, 00:20:05,VALID,1005.2,VALID,0,VALID,94.3311,VALID,0,VALID,23.47,VALID,353,VALID,0,
2009-03-30, 00:21:05,VALID,1005.21,VALID,0,VALID,94.354,VALID,0,VALID,23.47,VALID,353,VALID,0,
2009-03-30, 00:22:05,VALID,1005.2,VALID,0,VALID,94.3464,VALID,0,VALID,23.4505,VALID,353,VALID,0,
2009-03-30, 00:23:05,VALID,1005.2,VALID,0,VALID,94.3921,VALID,0,VALID,23.4912,VALID,353,VALID,0,
2009-03-30, 00:24:05,VALID,1005.21,VALID,0,VALID,94.4303,VALID,0,VALID,23.4912,VALID,353,VALID,0.0976563,
2009-03-30, 00:25:05,VALID,1005.2,VALID,0,VALID,94.4684,VALID,0,VALID,23.4894,VALID,353,VALID,0.127734,
2009-03-30, 00:26:05,VALID,1005.2,VALID,0,VALID,94.4532,VALID,0,VALID,23.5071,VALID,353,VALID,0.0746094,
2009-03-30, 00:27:05,VALID,1005.2,VALID,0,VALID,94.4455,VALID,0,VALID,23.4894,VALID,353,VALID,0,
2009-03-30, 00:28:05,VALID,1005.15,VALID,0,VALID,94.4227,VALID,0,VALID,23.4912,VALID,353,VALID,0.00078125,
2009-03-30, 00:29:05,VALID,1005.15,VALID,0,VALID,94.3998,VALID,0,VALID,23.47,VALID,353,VALID,0.11875,
2009-03-30, 00:30:05,VALID,1005.13,VALID,0,VALID,94.4303,VALID,0,VALID,23.47,VALID,353,VALID,0.182031,
2009-03-30, 00:31:05,VALID,1005.09,VALID,0,VALID,94.4227,VALID,0,VALID,23.4505,VALID,353,VALID,0.323438,
2009-03-30, 00:32:05,VALID,1005.13,VALID,0,VALID,94.3921,VALID,0,VALID,23.4311,VALID,353,VALID,0.230078,
2009-03-30, 00:33:05,VALID,1005.1,VALID,0,VALID,94.3921,VALID,0,VALID,23.4116,VALID,353,VALID,0.00664063,
2009-03-30, 00:34:05,VALID,1005.11,VALID,0,VALID,94.3845,VALID,0,VALID,23.3921,VALID,353,VALID,0,
2009-03-30, 00:35:05,VALID,1005.09,VALID,0,VALID,94.3845,VALID,0,VALID,23.3532,VALID,353,VALID,0,
2009-03-30, 00:36:05,VALID,1005.11,VALID,0,VALID,94.3692,VALID,0,VALID,23.3532,VALID,353,VALID,0,
2009-03-30, 00:37:05,VALID,1005.11,VALID,0,VALID,94.3769,VALID,0,VALID,23.3337,VALID,353,VALID,0,
2009-03-30, 00:38:05,VALID,1005.07,VALID,0,VALID,94.3921,VALID,0,VALID,23.3355,VALID,353,VALID,0,
2009-03-30, 00:39:05,VALID,1005.07,VALID,0,VALID,94.4074,VALID,0,VALID,23.3337,VALID,353,VALID,0,
2009-03-30, 00:40:05,VALID,1005.08,VALID,0,VALID,94.4761,VALID,0,VALID,23.3532,VALID,353,VALID,0,
2009-03-30, 00:41:05,VALID,1005.04,VALID,0,VALID,94.4913,VALID,0,VALID,23.3727,VALID,353,VALID,0,
2009-03-30, 00:42:05,VALID,1005.01,VALID,0,VALID,94.5142,VALID,0,VALID,23.3532,VALID,353,VALID,0.252344,
2009-03-30, 00:43:05,VALID,1005.01,VALID,0,VALID,94.5371,VALID,0,VALID,23.3727,VALID,353,VALID,0.161328,
2009-03-30, 00:44:05,VALID,1005,VALID,0,VALID,94.5981,VALID,0,VALID,23.3514,VALID,353,VALID,0,
2009-03-30, 00:45:05,VALID,1004.97,VALID,0,VALID,94.5829,VALID,0,VALID,23.3727,VALID,353,VALID,0,
2009-03-30, 00:46:05,VALID,1004.93,VALID,0,VALID,94.5142,VALID,0,VALID,23.3532,VALID,353,VALID,0,
2009-03-30, 00:47:05,VALID,1004.93,VALID,0,VALID,94.4379,VALID,0,VALID,23.3125,VALID,353,VALID,0,
2009-03-30, 00:48:05,VALID,1004.94,VALID,0,VALID,94.4532,VALID,0,VALID,23.3355,VALID,353,VALID,0,
2009-03-30, 00:49:05,VALID,1004.92,VALID,0,VALID,94.4303,VALID,0,VALID,23.2966,VALID,353,VALID,0,
2009-03-30, 00:50:05,VALID,1004.92,VALID,0,VALID,94.4532,VALID,0,VALID,23.2559,VALID,353,VALID,0,
2009-03-30, 00:51:05,VALID,1004.94,VALID,0,VALID,94.4837,VALID,0,VALID,23.2559,VALID,353,VALID,0,
2009-03-30, 00:52:05,VALID,1004.92,VALID,0,VALID,94.5142,VALID,0,VALID,23.2382,VALID,353,VALID,0,
2009-03-30, 00:53:05,VALID,1004.92,VALID,0,VALID,94.4989,VALID,0,VALID,23.2152,VALID,353,VALID,0,
2009-03-30, 00:54:05,VALID,1004.9,VALID,0,VALID,94.4989,VALID,0,VALID,23.217,VALID,353,VALID,0,
2009-03-30, 00:55:05,VALID,1004.9,VALID,0,VALID,94.5371,VALID,0,VALID,23.2364,VALID,353,VALID,0,
2009-03-30, 00:56:05,VALID,1004.91,VALID,0,VALID,94.6134,VALID,0,VALID,23.2577,VALID,353,VALID,0,
2009-03-30, 00:57:05,VALID,1004.91,VALID,0,VALID,94.6134,VALID,0,VALID,23.2771,VALID,353,VALID,0,
2009-03-30, 00:58:05,VALID,1004.94,VALID,0,VALID,94.6286,VALID,0,VALID,23.2541,VALID,353,VALID,0,
2009-03-30, 00:59:05,VALID,1004.9,VALID,0,VALID,94.6591,VALID,0,VALID,23.2948,VALID,353,VALID,0,
2009-03-30, 01:00:05,VALID,1004.9,VALID,0,VALID,94.6744,VALID,0,VALID,23.3143,VALID,353,VALID,0,
2009-03-30, 01:01:05,VALID,1004.9,VALID,0,VALID,94.6286,VALID,0,VALID,23.3143,VALID,353,VALID,0,
2009-03-30, 01:02:05,VALID,1004.87,VALID,0,VALID,94.6134,VALID,0,VALID,23.2559,VALID,353,VALID,0.711328,
2009-03-30, 01:03:05,VALID,1004.84,VALID,0,VALID,94.5829,VALID,0,VALID,23.2559,VALID,354,VALID,0.503906,
2009-03-30, 01:04:05,VALID,1004.8,VALID,0,VALID,94.5523,VALID,0,VALID,23.2364,VALID,354,VALID,0.639063,
2009-03-30, 01:05:05,VALID,1004.8,VALID,0,VALID,94.5371,VALID,0,VALID,23.1975,VALID,354,VALID,0.700391,
2009-03-30, 01:06:05,VALID,1004.78,VALID,0,VALID,94.5523,VALID,0,VALID,23.1568,VALID,354,VALID,0.614844,
2009-03-30, 01:07:05,VALID,1004.78,VALID,0,VALID,94.6439,VALID,0.100563,VALID,23.1763,VALID,354,VALID,0.503906,
2009-03-30, 01:08:05,VALID,1004.76,VALID,0,VALID,94.7278,VALID,0,VALID,23.1975,VALID,354,VALID,0.491406,
2009-03-30, 01:09:05,VALID,1004.79,VALID,0,VALID,94.766,VALID,0,VALID,23.2152,VALID,354,VALID,0.278125,
2009-03-30, 01:10:05,VALID,1004.75,VALID,0,VALID,94.7736,VALID,0,VALID,23.2559,VALID,354,VALID,0.357031,
2009-03-30, 01:11:05,VALID,1004.77,VALID,0,VALID,94.7736,VALID,0,VALID,23.2559,VALID,354,VALID,0.370313,
2009-03-30, 01:12:05,VALID,1004.74,VALID,0,VALID,94.7507,VALID,0,VALID,23.2754,VALID,354,VALID,0.524609,
2009-03-30, 01:13:05,VALID,1004.74,VALID,0,VALID,94.7202,VALID,0,VALID,23.2364,VALID,354,VALID,0.461719,
2009-03-30, 01:14:05,VALID,1004.73,VALID,0,VALID,94.7431,VALID,0,VALID,23.2364,VALID,354,VALID,0.341406,
2009-03-30, 01:15:05,VALID,1004.73,VALID,0,VALID,94.7583,VALID,0,VALID,23.2364,VALID,354,VALID,0.235547,
2009-03-30, 01:16:05,VALID,1004.69,VALID,0,VALID,94.7965,VALID,0,VALID,23.2559,VALID,354,VALID,0.278906,
2009-03-30, 01:17:05,VALID,1004.71,VALID,0,VALID,94.8422,VALID,0,VALID,23.2736,VALID,354,VALID,0.119141,
2009-03-30, 01:18:05,VALID,1004.69,VALID,0,VALID,94.8651,VALID,0,VALID,23.3355,VALID,354,VALID,0.197656,
2009-03-30, 01:19:05,VALID,1004.69,VALID,0,VALID,94.8422,VALID,0,VALID,23.3337,VALID,354,VALID,0.222266,
2009-03-30, 01:20:05,VALID,1004.69,VALID,0,VALID,94.7431,VALID,0,VALID,23.2966,VALID,354,VALID,0.335156,
2009-03-30, 01:21:05,VALID,1004.71,VALID,0,VALID,94.6973,VALID,0,VALID,23.2559,VALID,354,VALID,0.249219,
2009-03-30, 01:22:05,VALID,1004.71,VALID,0,VALID,94.7278,VALID,0,VALID,23.2364,VALID,354,VALID,0.301562,
2009-03-30, 01:23:05,VALID,1004.7,VALID,0,VALID,94.7202,VALID,0,VALID,23.217,VALID,354,VALID,0.634766,
2009-03-30, 01:24:05,VALID,1004.68,VALID,0,VALID,94.7278,VALID,0,VALID,23.217,VALID,354,VALID,0.467187,
2009-03-30, 01:25:05,VALID,1004.67,VALID,0,VALID,94.7049,VALID,0,VALID,23.1975,VALID,354,VALID,0.539453,
2009-03-30, 01:26:05,VALID,1004.67,VALID,0,VALID,94.7125,VALID,0,VALID,23.178,VALID,354,VALID,0.521484,
2009-03-30, 01:27:05,VALID,1004.66,VALID,0,VALID,94.7507,VALID,0,VALID,23.1586,VALID,354,VALID,0.358984,
2009-03-30, 01:28:05,VALID,1004.63,VALID,0,VALID,94.766,VALID,0,VALID,23.1374,VALID,354,VALID,0.43125,
2009-03-30, 01:29:05,VALID,1004.66,VALID,0,VALID,94.8117,VALID,0,VALID,23.1586,VALID,354,VALID,0.409375,
2009-03-30, 01:30:05,VALID,1004.63,VALID,0,VALID,94.8575,VALID,0,VALID,23.178,VALID,354,VALID,0.346484,
2009-03-30, 01:31:05,VALID,1004.63,VALID,0,VALID,94.8346,VALID,0,VALID,23.178,VALID,354,VALID,0.332812,
2009-03-30, 01:32:05,VALID,1004.6,VALID,0,VALID,94.8422,VALID,0,VALID,23.1975,VALID,354,VALID,0.369141,
2009-03-30, 01:33:05,VALID,1004.62,VALID,0,VALID,94.8194,VALID,0,VALID,23.1568,VALID,354,VALID,0.412891,
2009-03-30, 01:34:05,VALID,1004.58,VALID,0,VALID,94.7965,VALID,0,VALID,23.1586,VALID,354,VALID,0.505078,
2009-03-30, 01:35:05,VALID,1004.55,VALID,0,VALID,94.7736,VALID,0,VALID,23.1197,VALID,354,VALID,0.427734,
2009-03-30, 01:36:05,VALID,1004.55,VALID,0,VALID,94.7888,VALID,0,VALID,23.1197,VALID,354,VALID,0.455078,
2009-03-30, 01:37:05,VALID,1004.54,VALID,0,VALID,94.8194,VALID,0,VALID,23.1391,VALID,354,VALID,0.353516,
2009-03-30, 01:38:05,VALID,1004.52,VALID,0,VALID,94.9033,VALID,0,VALID,23.1586,VALID,354,VALID,0.397656,
2009-03-30, 01:39:05,VALID,1004.47,VALID,0,VALID,94.9414,VALID,0,VALID,23.1568,VALID,354,VALID,0.184375,
2009-03-30, 01:40:05,VALID,1004.45,VALID,0,VALID,94.9567,VALID,0,VALID,23.217,VALID,354,VALID,0.194141,
2009-03-30, 01:41:05,VALID,1004.43,VALID,0,VALID,94.9033,VALID,0,VALID,23.217,VALID,354,VALID,0.145703,
2009-03-30, 01:42:05,VALID,1004.38,VALID,0,VALID,94.8956,VALID,0,VALID,23.1975,VALID,354,VALID,0,
2009-03-30, 01:43:05,VALID,1004.36,VALID,0,VALID,94.8575,VALID,0,VALID,23.1763,VALID,354,VALID,0,
2009-03-30, 01:44:05,VALID,1004.34,VALID,0,VALID,94.8346,VALID,0,VALID,23.178,VALID,354,VALID,0.444141,
2009-03-30, 01:45:05,VALID,1004.33,VALID,0,VALID,94.8499,VALID,0,VALID,23.178,VALID,354,VALID,0.233203,
2009-03-30, 01:46:05,VALID,1004.32,VALID,0,VALID,94.8422,VALID,0,VALID,23.1568,VALID,354,VALID,0.494141,
2009-03-30, 01:47:05,VALID,1004.29,VALID,0,VALID,94.7965,VALID,0,VALID,23.1586,VALID,354,VALID,0.435547,
2009-03-30, 01:48:05,VALID,1004.28,VALID,0,VALID,94.8422,VALID,0,VALID,23.1197,VALID,354,VALID,0.387109,
2009-03-30, 01:49:05,VALID,1004.24,VALID,0,VALID,94.8194,VALID,0,VALID,23.1409,VALID,354,VALID,0.372266,
2009-03-30, 01:50:05,VALID,1004.19,VALID,0,VALID,94.8346,VALID,0,VALID,23.0984,VALID,354,VALID,0.304297,
2009-03-30, 01:51:05,VALID,1004.17,VALID,0,VALID,94.8651,VALID,0,VALID,23.1197,VALID,354,VALID,0.504687,
2009-03-30, 01:52:05,VALID,1004.14,VALID,0,VALID,94.9262,VALID,0,VALID,23.1374,VALID,354,VALID,0.533203,
2009-03-30, 01:53:05,VALID,1004.12,VALID,0,VALID,94.9033,VALID,0,VALID,23.1586,VALID,354,VALID,0.513281,
2009-03-30, 01:54:05,VALID,1004.11,VALID,0,VALID,94.8422,VALID,0,VALID,23.1391,VALID,354,VALID,0.498828,
2009-03-30, 01:55:05,VALID,1004.08,VALID,0,VALID,94.8346,VALID,0,VALID,23.1197,VALID,354,VALID,0.455078,
2009-03-30, 01:56:05,VALID,1004.08,VALID,0,VALID,94.8651,VALID,0,VALID,23.1002,VALID,354,VALID,0.279687,
2009-03-30, 01:57:05,VALID,1004.08,VALID,0,VALID,94.8728,VALID,0,VALID,23.1197,VALID,354,VALID,0.134375,
2009-03-30, 01:58:05,VALID,1004.06,VALID,0,VALID,94.8422,VALID,0,VALID,23.1197,VALID,354,VALID,0.153125,
2009-03-30, 01:59:05,VALID,1004.07,VALID,0,VALID,94.9262,VALID,0,VALID,23.1179,VALID,354,VALID,0,
2009-03-30, 02:00:05,VALID,1004.05,VALID,0,VALID,94.9643,VALID,0,VALID,23.1603,VALID,354,VALID,0,
2009-03-30, 02:01:05,VALID,1004.06,VALID,0,VALID,94.9338,VALID,0,VALID,23.178,VALID,354,VALID,0,
2009-03-30, 02:02:05,VALID,1004.03,VALID,0,VALID,94.9033,VALID,0,VALID,23.178,VALID,354,VALID,0,
2009-03-30, 02:03:05,VALID,1004.03,VALID,0,VALID,94.8956,VALID,0,VALID,23.178,VALID,354,VALID,0,
2009-03-30, 02:04:05,VALID,1004.02,VALID,0,VALID,94.8804,VALID,0,VALID,23.178,VALID,354,VALID,0,
2009-03-30, 02:05:05,VALID,1004.02,VALID,0,VALID,94.8422,VALID,0,VALID,23.1179,VALID,354,VALID,0,
2009-03-30, 02:06:05,VALID,1004,VALID,0,VALID,94.7888,VALID,0,VALID,23.1197,VALID,354,VALID,0,
2009-03-30, 02:07:05,VALID,1003.99,VALID,0,VALID,94.7431,VALID,0,VALID,23.0401,VALID,354,VALID,0.336719,
2009-03-30, 02:08:05,VALID,1003.99,VALID,0,VALID,94.7049,VALID,0,VALID,23.0224,VALID,354,VALID,0.256641,
2009-03-30, 02:09:05,VALID,1004,VALID,0,VALID,94.7278,VALID,0,VALID,22.9817,VALID,354,VALID,0.198828,
2009-03-30, 02:10:05,VALID,1003.99,VALID,0,VALID,94.7431,VALID,0,VALID,22.9622,VALID,354,VALID,0.00117188,
2009-03-30, 02:11:05,VALID,1003.99,VALID,0,VALID,94.766,VALID,0,VALID,23.0241,VALID,354,VALID,0.00664063,
2009-03-30, 02:12:05,VALID,1004,VALID,0,VALID,94.7278,VALID,0,VALID,22.9834,VALID,354,VALID,0,
2009-03-30, 02:13:05,VALID,1004,VALID,0,VALID,94.7049,VALID,0,VALID,22.9233,VALID,354,VALID,0,
2009-03-30, 02:14:05,VALID,1004.03,VALID,0,VALID,94.766,VALID,0,VALID,22.9657,VALID,354,VALID,0,
2009-03-30, 02:15:05,VALID,1004.04,VALID,0,VALID,94.8499,VALID,0,VALID,22.9622,VALID,354,VALID,0,
2009-03-30, 02:16:05,VALID,1004.1,VALID,0,VALID,94.8651,VALID,0,VALID,23.0012,VALID,354,VALID,0,
2009-03-30, 02:17:05,VALID,1004.1,VALID,0,VALID,94.8575,VALID,0,VALID,23.0012,VALID,354,VALID,0,
2009-03-30, 02:18:04,VALID,1004.15,VALID,0,VALID,94.8728,VALID,0,VALID,23.0012,VALID,354,VALID,0,
2009-03-30, 02:19:04,VALID,1004.15,VALID,0,VALID,94.8499,VALID,0,VALID,23.0418,VALID,354,VALID,0,
2009-03-30, 02:20:04,VALID,1004.17,VALID,0,VALID,94.8422,VALID,0,VALID,23.0012,VALID,354,VALID,0,
2009-03-30, 02:21:04,VALID,1004.16,VALID,0,VALID,94.9109,VALID,0,VALID,23.0206,VALID,354,VALID,0.341406,
2009-03-30, 02:22:04,VALID,1004.18,VALID,0,VALID,94.8728,VALID,0,VALID,23.0206,VALID,354,VALID,0.410937,
2009-03-30, 02:23:04,VALID,1004.16,VALID,0,VALID,94.827,VALID,0,VALID,23.0224,VALID,354,VALID,0.651172,
2009-03-30, 02:24:04,VALID,1004.19,VALID,0,VALID,94.7812,VALID,0,VALID,22.9622,VALID,354,VALID,0.55,
2009-03-30, 02:25:04,VALID,1004.2,VALID,0,VALID,94.7431,VALID,0,VALID,22.9445,VALID,354,VALID,0.607422,
2009-03-30, 02:26:04,VALID,1004.22,VALID,0,VALID,94.7965,VALID,0,VALID,22.8844,VALID,354,VALID,0.320313,
2009-03-30, 02:27:04,VALID,1004.21,VALID,0,VALID,94.9033,VALID,0,VALID,22.9233,VALID,354,VALID,0.125391,
2009-03-30, 02:28:04,VALID,1004.21,VALID,0,VALID,94.9262,VALID,0,VALID,22.9428,VALID,354,VALID,0,
2009-03-30, 02:29:04,VALID,1004.23,VALID,0,VALID,94.9719,VALID,0,VALID,22.9428,VALID,354,VALID,0.0523437,
2009-03-30, 02:30:04,VALID,1004.24,VALID,0,VALID,95.033,VALID,0,VALID,23.0029,VALID,354,VALID,0.196875,
2009-03-30, 02:31:04,VALID,1004.23,VALID,0,VALID,95.0101,VALID,0,VALID,23.0206,VALID,354,VALID,0.199609,
2009-03-30, 02:32:04,VALID,1004.26,VALID,0,VALID,94.9643,VALID,0,VALID,23.0418,VALID,354,VALID,0.33125,
2009-03-30, 02:33:04,VALID,1004.26,VALID,0,VALID,94.9338,VALID,0,VALID,23.0224,VALID,354,VALID,0.444922,
2009-03-30, 02:34:04,VALID,1004.28,VALID,0,VALID,94.9414,VALID,0,VALID,23.0418,VALID,354,VALID,0.397266,
2009-03-30, 02:35:04,VALID,1004.28,VALID,0,VALID,94.9033,VALID,0,VALID,23.0029,VALID,354,VALID,0.360156,
2009-03-30, 02:36:04,VALID,1004.26,VALID,0,VALID,94.8728,VALID,0,VALID,22.9622,VALID,354,VALID,0.475,
2009-03-30, 02:37:04,VALID,1004.27,VALID,0,VALID,94.8804,VALID,0,VALID,22.9622,VALID,354,VALID,0.463672,
2009-03-30, 02:38:04,VALID,1004.25,VALID,0,VALID,94.8499,VALID,0,VALID,22.9233,VALID,354,VALID,0.461719,
2009-03-30, 02:39:04,VALID,1004.23,VALID,0,VALID,94.8575,VALID,0,VALID,22.9039,VALID,354,VALID,0.477344,
2009-03-30, 02:40:04,VALID,1004.22,VALID,0,VALID,94.8728,VALID,0,VALID,22.8844,VALID,354,VALID,0.603125,
2009-03-30, 02:41:04,VALID,1004.2,VALID,0,VALID,94.949,VALID,0,VALID,22.9251,VALID,354,VALID,0.462891,
2009-03-30, 02:42:04,VALID,1004.17,VALID,0,VALID,95.0711,VALID,0,VALID,22.9834,VALID,354,VALID,0.476172,
2009-03-30, 02:43:04,VALID,1004.14,VALID,0,VALID,95.1016,VALID,0,VALID,23.0012,VALID,354,VALID,0.549219,
2009-03-30, 02:44:04,VALID,1004.16,VALID,0,VALID,95.0635,VALID,0,VALID,23.0206,VALID,354,VALID,0.494922,
2009-03-30, 02:45:04,VALID,1004.15,VALID,0,VALID,95.094,VALID,0,VALID,23.0401,VALID,354,VALID,0.364453,
2009-03-30, 02:46:04,VALID,1004.13,VALID,0,VALID,95.0864,VALID,0,VALID,23.1002,VALID,354,VALID,0.326953,
2009-03-30, 02:47:04,VALID,1004.13,VALID,0,VALID,95.0635,VALID,0,VALID,23.079,VALID,354,VALID,0.355469,
2009-03-30, 02:48:04,VALID,1004.13,VALID,0,VALID,95.0177,VALID,0,VALID,23.1002,VALID,354,VALID,0.264453,
2009-03-30, 02:49:04,VALID,1004.13,VALID,0,VALID,95.0024,VALID,0,VALID,23.0613,VALID,354,VALID,0.239453,
2009-03-30, 02:50:04,VALID,1004.14,VALID,0,VALID,94.9948,VALID,0,VALID,23.0595,VALID,354,VALID,0.0148437,
2009-03-30, 02:51:04,VALID,1004.13,VALID,0,VALID,95.0101,VALID,0,VALID,23.0595,VALID,354,VALID,0,
2009-03-30, 02:52:04,VALID,1004.13,VALID,0,VALID,95.0177,VALID,0,VALID,23.0595,VALID,354,VALID,0,
2009-03-30, 02:53:04,VALID,1004.17,VALID,0,VALID,94.9643,VALID,0,VALID,23.1019,VALID,354,VALID,0,
2009-03-30, 02:54:04,VALID,1004.13,VALID,0,VALID,94.9567,VALID,0,VALID,23.0807,VALID,354,VALID,0,
2009-03-30, 02:55:04,VALID,1004.16,VALID,0,VALID,94.9643,VALID,0,VALID,23.0613,VALID,354,VALID,0,
2009-03-30, 02:56:04,VALID,1004.16,VALID,0,VALID,94.9567,VALID,0,VALID,23.0825,VALID,354,VALID,0,
2009-03-30, 02:57:04,VALID,1004.14,VALID,0,VALID,94.9872,VALID,0,VALID,23.0206,VALID,354,VALID,0.282813,
2009-03-30, 02:58:04,VALID,1004.18,VALID,0,VALID,94.9643,VALID,0,VALID,23.0418,VALID,354,VALID,0.190625,
2009-03-30, 02:59:04,VALID,1004.17,VALID,0,VALID,94.9643,VALID,0,VALID,23.0418,VALID,354,VALID,0.465234,
2009-03-30, 03:00:04,VALID,1004.2,VALID,0,VALID,94.949,VALID,0,VALID,23.0224,VALID,355,VALID,0.630859,
2009-03-30, 03:01:04,VALID,1004.16,VALID,0,VALID,94.9262,VALID,0,VALID,23.0029,VALID,359,VALID,0.738672,
2009-03-30, 03:02:04,VALID,1004.16,VALID,0,VALID,94.8804,VALID,0,VALID,22.9428,VALID,359,VALID,0.553516,
2009-03-30, 03:03:04,VALID,1004.15,VALID,0,VALID,94.8956,VALID,0,VALID,22.9233,VALID,359,VALID,0.375391,
2009-03-30, 03:04:04,VALID,1004.11,VALID,0,VALID,94.9109,VALID,0,VALID,22.9445,VALID,359,VALID,0.188672,
2009-03-30, 03:05:04,VALID,1004.13,VALID,0,VALID,94.9109,VALID,0,VALID,22.9233,VALID,359,VALID,0.217578,
2009-03-30, 03:06:04,VALID,1004.14,VALID,0,VALID,94.9414,VALID,0,VALID,22.9233,VALID,359,VALID,0,
2009-03-30, 03:07:04,VALID,1004.13,VALID,0,VALID,94.9567,VALID,0,VALID,22.9445,VALID,359,VALID,0.0945313,
2009-03-30, 03:08:04,VALID,1004.14,VALID,0,VALID,94.9796,VALID,0,VALID,22.9233,VALID,359,VALID,0,
2009-03-30, 03:09:04,VALID,1004.15,VALID,0,VALID,94.9796,VALID,0,VALID,22.9445,VALID,359,VALID,0,
2009-03-30, 03:10:04,VALID,1004.17,VALID,0,VALID,95.033,VALID,0,VALID,22.9428,VALID,359,VALID,0,
2009-03-30, 03:11:04,VALID,1004.18,VALID,0,VALID,95.0711,VALID,0,VALID,23.0029,VALID,359,VALID,0.06875,
2009-03-30, 03:12:04,VALID,1004.2,VALID,0,VALID,94.9872,VALID,0,VALID,22.9817,VALID,359,VALID,0.269922,
2009-03-30, 03:13:04,VALID,1004.23,VALID,0,VALID,94.9414,VALID,0,VALID,22.964,VALID,359,VALID,0.302344,
2009-03-30, 03:14:04,VALID,1004.23,VALID,0,VALID,94.9567,VALID,0,VALID,22.964,VALID,359,VALID,0.384375,
2009-03-30, 03:15:04,VALID,1004.21,VALID,0,VALID,94.9185,VALID,0,VALID,22.9251,VALID,359,VALID,0.163281,
2009-03-30, 03:16:04,VALID,1004.18,VALID,0,VALID,94.9033,VALID,0,VALID,22.8844,VALID,359,VALID,0,
2009-03-30, 03:17:04,VALID,1004.2,VALID,0,VALID,94.9109,VALID,0,VALID,22.8861,VALID,359,VALID,0,
2009-03-30, 03:18:04,VALID,1004.18,VALID,0,VALID,94.888,VALID,0,VALID,22.8861,VALID,359,VALID,0,
2009-03-30, 03:19:04,VALID,1004.19,VALID,0,VALID,94.9185,VALID,0,VALID,22.8667,VALID,359,VALID,0.463672,
2009-03-30, 03:20:04,VALID,1004.22,VALID,0,VALID,94.9185,VALID,0,VALID,22.8667,VALID,359,VALID,0.465625,
2009-03-30, 03:21:04,VALID,1004.23,VALID,0,VALID,95.0406,VALID,0,VALID,22.8667,VALID,359,VALID,0.0839844,
2009-03-30, 03:22:04,VALID,1004.23,VALID,0,VALID,95.0635,VALID,0,VALID,22.9251,VALID,359,VALID,0.184375,
2009-03-30, 03:23:04,VALID,1004.22,VALID,0,VALID,95.0558,VALID,0,VALID,22.9445,VALID,359,VALID,0.327734,
2009-03-30, 03:24:04,VALID,1004.25,VALID,0,VALID,95.1016,VALID,0,VALID,22.964,VALID,359,VALID,0.183203,
2009-03-30, 03:25:04,VALID,1004.25,VALID,0,VALID,95.1398,VALID,0,VALID,22.9817,VALID,359,VALID,0.340234,
2009-03-30, 03:26:04,VALID,1004.28,VALID,0,VALID,95.0864,VALID,0,VALID,23.0029,VALID,359,VALID,0.219531,
2009-03-30, 03:27:04,VALID,1004.31,VALID,0,VALID,95.1016,VALID,0,VALID,23.0206,VALID,359,VALID,0.228125,
2009-03-30, 03:28:04,VALID,1004.27,VALID,0,VALID,95.1016,VALID,0,VALID,23.0206,VALID,359,VALID,0.313672,
2009-03-30, 03:29:04,VALID,1004.25,VALID,0,VALID,95.0406,VALID,0,VALID,23.0418,VALID,359,VALID,0.252734,
2009-03-30, 03:30:04,VALID,1004.28,VALID,0,VALID,95.0101,VALID,0,VALID,23.0224,VALID,359,VALID,0.341797,
2009-03-30, 03:31:04,VALID,1004.28,VALID,0,VALID,94.9719,VALID,0,VALID,23.0012,VALID,359,VALID,0.465234,
2009-03-30, 03:32:04,VALID,1004.26,VALID,0,VALID,94.9033,VALID,0,VALID,22.9233,VALID,359,VALID,0.51875,
2009-03-30, 03:33:04,VALID,1004.24,VALID,0,VALID,94.8651,VALID,0,VALID,22.9251,VALID,359,VALID,0.469531,
2009-03-30, 03:34:04,VALID,1004.25,VALID,0,VALID,94.9033,VALID,0,VALID,22.9056,VALID,359,VALID,0.543359,
2009-03-30, 03:35:04,VALID,1004.24,VALID,0,VALID,94.9338,VALID,0,VALID,22.8649,VALID,359,VALID,0.455078,
2009-03-30, 03:36:04,VALID,1004.25,VALID,0,VALID,94.9719,VALID,0,VALID,22.8649,VALID,359,VALID,0.330469,
2009-03-30, 03:37:04,VALID,1004.26,VALID,0,VALID,95.033,VALID,0,VALID,22.9039,VALID,359,VALID,0.4875,
2009-03-30, 03:38:04,VALID,1004.27,VALID,0,VALID,95.1245,VALID,0,VALID,22.964,VALID,359,VALID,0.587109,
2009-03-30, 03:39:04,VALID,1004.28,VALID,0,VALID,95.1321,VALID,0,VALID,23.0029,VALID,359,VALID,0.533984,
2009-03-30, 03:40:04,VALID,1004.28,VALID,0,VALID,95.1321,VALID,0,VALID,23.0224,VALID,359,VALID,0.4375,
2009-03-30, 03:41:04,VALID,1004.27,VALID,0,VALID,95.1093,VALID,0,VALID,23.0418,VALID,359,VALID,0.580469,
2009-03-30, 03:42:04,VALID,1004.28,VALID,0,VALID,95.1321,VALID,0,VALID,23.0613,VALID,359,VALID,0.403516,
2009-03-30, 03:43:04,VALID,1004.27,VALID,0,VALID,95.1321,VALID,0,VALID,23.0401,VALID,359,VALID,0.433203,
2009-03-30, 03:44:04,VALID,1004.29,VALID,0,VALID,95.0711,VALID,0,VALID,23.0613,VALID,358,VALID,0.331641,
2009-03-30, 03:45:04,VALID,1004.28,VALID,0,VALID,95.0482,VALID,0,VALID,23.0613,VALID,358,VALID,0.40625,
2009-03-30, 03:46:04,VALID,1004.3,VALID,0,VALID,95.0482,VALID,0,VALID,23.0613,VALID,358,VALID,0.404687,
2009-03-30, 03:47:04,VALID,1004.32,VALID,0,VALID,95.0482,VALID,0,VALID,23.0807,VALID,358,VALID,0.467578,
2009-03-30, 03:48:04,VALID,1004.36,VALID,0,VALID,95.0406,VALID,0,VALID,23.0807,VALID,358,VALID,0.185547,